Race Results for
MSC #4, Chile Challenge
Angel Fire, NM
(Event Information)
Downhill on 06/05/2011

Note: Ranking points are NOT upgrade points. An explanation of ranking points can be found here.


Men - CAT 3 - 1-10

 Place Points NameCity, StateTime USAC #BibTeam
1Ian Cunningham   Phoenix, AZ12:00.54 353570  769 EVS Sports
2Devon Yeager   Amarillo, TX19:31.53 352028  630 

Men - CAT 3 - 11-12

 Place Points NameCity, StateTime USAC #BibTeam
1482.03Armen Davis   Longmont, CO7:00.95 293962  558 
2503.62Alex Holtzen   Boulder, CO7:46.26 321534  557 The Fix
3Michael Kelly   8:07.95  560 The Fix Bike Shop
4546.80Luke Johnston   New Castle, PA9:45.63 134371  764 Dad!
5568.39Fuel Macrae   Fort Collins, CO9:55.64 300360  610 
6589.98Griffen Chabot   Dillon, CO23:12.41 356841  524 

Men - CAT 3 - 13-14

 Place Points NameCity, StateTime USAC #BibTeam
1416.44Wyatt Freier   Castle Rock, CO6:29.53 309949  514 RPM/Yeti
2443.98Samuel Beauchamp   Phoenix, AZ6:36.68 320504  569 
3471.52zakary ulin   Castle Rock, CO6:40.46 352982  784 His Parents
4499.06Cole Hengeveld   Flagstaff, AZ7:11.93 367375  811 Nothland Motorsports
5526.60Triton Nelson   Albuquerque, NM7:28.93 352812  566 
DNFDanny 'D.J.' Weber   Parker, CO 278550  592 aCOS - A Culture of Speed

Men - CAT 3 - 15-18

 Place Points NameCity, StateTime USAC #BibTeam
1409.65Bennett Colburn   Golden, CO6:05.41 315984  679 Pedal Pushers
2416.21Gavin Gargiulo   Colorado Springs, CO6:39.87 353172  734 Stratical Solutions
3422.77Collin Albert   Colorado Springs, CO6:56.93 276233  730 Front Rangers
4Kolt Jarrett   6:59.93  647 
5435.89Tyler Krenek   Tucson, AZ7:04.76 355340  806 MJT Designs / Supercross
6442.45Gabe Neymark   Golden, CO7:11.17 299554  550 Pedal Pushers Cyclery
7449.01Forrest Simpson   Longmont, CO7:17.03 317338  645 O'Neal/ Azonic
8James Rychener   7:23.35  760 
9462.13Jamie Henderson   Colorado Springs7:25.57 407181  779 
10468.69Tory Powers   Lyons, CO7:26.47 282235  706 
11Joseph Posster   7:38.92  683 
12Scott Rathbone   7:44.72  643 Foothills Ski & Bike
13488.37Mitch McFee   Pueblo, CO8:13.85 351946  818 ODI / Azonic-Leatt / IXS Sports Division
14494.93Colin Hornock   Centennial, CO8:19.53 297119  519 Alpha Bicyle Company
15Alec Di Lorenzo   8:24.85  644 Peddal pushers cyclery
16508.05Nate Berryhill   Nogal, NM8:37.30 296001  836 

Men - CAT 3 - 19-29

 Place Points NameCity, StateTime USAC #BibTeam
1477.28justin richardson   Denver, CO6:24.52 353138  768 Mojo Wheels
2484.35Brian Rupert   Pasadena, TX6:25.69 42104  641 
3491.42Adam Degemann   Loveland, CO6:46.02 303585  727 Grand Sports
4Ryan Smith   6:47.88  545 
5Seth Mabes   6:51.04  736 
6Ethan Smith   6:52.18  544 
7519.70Jeremy Kuntz   Loveland, CO6:53.92 320248  588 Snap-on Tools
8526.77Skyler Johnston   Amarillo, TX6:57.67 351712  547 
9Ryan Towne   7:16.55  504 Golden Bike Shop
10Justin Fry   7:29.23  790 
11Jacob Moore   8:21.60  715 
12555.05Derek Myers   Atlanta, GA8:55.56 406642  637 high altitude
13Scott Reagan   9:03.54  597 Lucky's Roadhouse/Team Smokers
14Alex Demenna   10:03.85  778 Anti Monkey Butt Powder
15Mathew Hajek   10:10.50  813 Black Cat Scraps
16Scott Polly   10:42.25  510 One Ghost Industries
DNFMichael Broyles     548 
DNFAdam Jaberi     596 Lucky's Roadhouse/Team Smokers
DNFNicholas Stewart     775 

Men - CAT 3 - 30-99

 Place Points NameCity, StateTime USAC #BibTeam
1540.00Jerry Hazard   Bayfield, CO7:43.51 301960  846 Airborne Bicycles
2565.00Travis Cole   Pittsboro, IN8:13.43 134325  652 
3Jacob Brecht   9:35.14  642 
DNFNeil Hurley   Durango, CO 17217  533 

Men - CAT 2 - 15-18

 Place Points NameCity, StateTime USAC #BibTeam
1325.34Alexander Willie   Longmont, CO5:33.05 276946  762 SMBA
2333.62Josh Conroy   Evergreen, CO5:41.74 280785  741 RPM/Hayes Brake Cycling Team
3341.90Bryan Pagel   Tucson, AZ5:47.83 366484  759 JJ Bicycles
4350.18Joseph Crosby   Colorado Springs, CO5:50.25 280787  772 
5358.46Riley Farrar   Amarillo, TX5:53.51 281838  621 One Ghost Industries
6366.74Andrew Garner   Rio Rancho, NM5:54.12 319400  628 
7375.02Ben Weger   Englewood, CO5:58.61 287114  654 Mojo Wheels
8383.30John Nichols   Flagstaff, AZ6:03.53 296612  728 Absolute Bikes Team
9391.58Roy Benge   Carbondale, CO6:04.83 246529  616 Team Geronimo - Banshee Bikes
10399.86Sean Geisler   Salida, CO6:10.84 213901  743 yeti rpm
11408.14Chase Nelson   Littleton, CO6:15.98 264517  526 Wolf Rock Racing
12416.42Oliver Vowel   Dillon, CO6:17.77 298244  739 Wolf Rock Cycling
13424.70Tanner Spence   Carbondale, CO6:18.31 246796  681 Banshee / Geronimo
14432.98Bryce Hermanussen   Golden, CO6:21.63 318756  750 Pedal Pusher Cyclery
15441.26Robert Pettit   Basalt, CO6:23.17 267136  515 Team Geronimo
16449.54Jon Lindner   Longmont, CO6:30.02 298231  710 
17457.82cody hahn   Loveland, CO6:42.18 286792  556 Team Peleton
18466.10Cory Holmes   Tucson, AZ6:45.17 355342  807 MJT Designs / Supercross
19474.38Joe Barry   Colorado Springs, CO6:47.96 321972  704 Palmer High School Cycling Team
20482.66Josh Gonzales   Los Alamos, NM6:52.59 280532  845 Bikeworks Abq
21490.94Josh Wisda   Littleton, CO7:50.36 353718  700 
22499.22Jacob Branney   Boulder, CO9:45.47 219375  508 Aloha Mtn Cycles
DNFCody Smith   Colorado Springs, CO 316308  525 Palmer High Cycling Team
DNFBen Shay   Evergreen, CO 315608  528 aCOS
DNFWyatt Berryhill   Nogal, NM 263468  835 

Men - CAT 2 - 19-29

 Place Points NameCity, StateTime USAC #BibTeam
1387.55Eddy Honea   Angel Fire, NM5:46.16 355338  774 Angel Fire Bike Park
2393.17Andrew Dean   Boulder, CO5:52.42 318778  746 The Fix
3398.79linton judycki   Red River, NM5:55.40 353484  600 
4404.41Will Montague   Denver, CO5:56.25 322558  766 Guerrilla Gravity
5410.03William Beilke   Aurora, CO6:02.93 267179  594 mojo wheels
6415.65Kris Delgado   Durango, CO6:05.45 325520  585 Team Yanma
7421.27brett tetzloff   Tucson, AZ6:08.61 354530  551 
8Eric Pietryga   6:11.63  578 
9Taylor Thompson   6:16.39  777 Anti Monkey Butt Powder
10Ian Supple   6:25.41  639 
11443.75Eric Newell   Fort Collins, CO6:29.26 261895  822 Peloton Cycles
12449.37Kyle Ray   Bosque Farms, NM6:30.18 184589  620 
13454.99Daniel Marmor   Setauket, NY6:31.27 381089  668 
14460.61Myles Overstreet   El Paso, TX6:34.43 349430  535 
15466.23Kyle Fissel   Palisade, CO6:37.08 335268  690 
16471.85James Helmer   Salida, CO6:39.70 319658  808 Monarch Mountain
17477.47Chuan Banh   Albuquerque, NM6:40.18 298421  699 
18483.09Erich Ward   Colorado Springs, CO6:42.12 275334  698 Hybrosec
19488.71Brian Haffner   Boulder, CO6:42.29 269171  780 
20494.33Jared Shutts   Denver, CO6:43.30 296278  649 
21499.95Jonathan Yazzie   Grand Canyon, AZ6:43.89 334254  749 Sedona Bike and Bean
22505.57Jeremy Schwartz   Golden, CO6:45.40 296226  567 
23511.19Alex Kauzlaric   Albuquerque, NM6:49.41 244660  701 
24516.81Brandon LaBonte   Payson, AZ6:49.50 272882  627 Ride It Out Clothing
25522.43Matthew Wells   Greeley, CO6:51.46 322556  664 aCOS / Secret Cyclery
26528.05Russell Miskulin   Fort Collins, CO6:52.72 315862  693 
27533.67Brendan Smith   Boulder, CO6:59.97 247716  534 Terminal Velocity Racing
28Tigh Isaac   7:00.35  744 
29Ryan Sandlin   7:03.68  696 
30Ryan Wesson   7:13.51  570 
31Christopher Smith   7:14.17  731 
32561.77Kevin Wood   Manitou Springs, CO7:19.11 326992  797 
33567.39Holt Nixon   Elpaso, TX7:27.79 286924  532 Yeti Cycles
34David Norris   7:31.71  809 
35578.63John Rupp   Denver, CO7:55.12 317010  516 Guerilla Gravity
36584.25Mark Peterson   Fort Collins, CO8:09.38 335252  517 
37589.87Zach Sandell   Littleton, CO8:21.85 316514  579 
DNFLewis Lloyd     667 
DNFJacob Hatton   Eagle Nest, NM 355336  776 Angel Fire Bike Park
DNFMark Van Gemert   Indianapolis, IN 177017  832 

Men - CAT 2 - 30-39

 Place Points NameCity, StateTime USAC #BibTeam
1425.13Matt Giaraffa   Denver, CO5:59.57 296345  549 Guerrilla Gravity
2430.28Amos Hockmeyer   Taos, NM6:01.55 190944  624 Angel Fire / PPC
3435.43Moises Alarcon   Thornton, CO6:18.69 79633  500 Stirring Earth
4440.58Thomas Harwood   Fairbanks, AK6:31.92 115045  831 
5445.73Aaron Barr   Clyde, TX6:34.44 296629  574 
6450.88Evan Chute   Golden, CO6:37.30 180833  541 RPM/Yeti
7Thomas Rodriguez   6:40.12  531 Fattirecycles/Intense
8461.18Rohan Stites   Arenas Valley, NM6:46.14 296097  691 Gila Hike and Bike
9466.33Matt Parke   Denver, CO6:47.68 278454  674 Neverest
10471.48Patrick Sciaroni   Fort Collins, CO6:48.55 236651  538 Summit Velo
11476.63Adam Lavender   Carbondale, CO6:55.61 211131  575 Grassroots Cycles/Commencal
12Peter Dandrea   7:07.38  711 
13486.93Jesse Ruland   Grand Junction, CO7:08.77 353786  751 Grassroots Cycles
14492.08Trip Whittenburg   Amarillo, TX7:11.70 192980  825 Outdoor Element Sports
15497.23Eric Breden   Albuquerque, NM7:13.92 310099  753 
16502.38Christopher Taylor   Colorado Springs, CO7:19.23 247957  689 Neverest Racing
17507.53Erik Long   Coloradosprings, CO7:29.77 292977  671 flibye racing
18Bobby Prescott   8:06.76  841 Xtreme Team Cycling
19517.83Robert Gerwing   Golden, CO8:20.44 316608  782 aCOS
20Josh Cook   10:55.53  657 Neverest
DNFSeth Strickland   Breckenridge, CO 243646  619 Rocky Mountain Bikes / Summit Velo

Men - CAT 2 - 40-99

 Place Points NameCity, StateTime USAC #BibTeam
1407.60david sturgess   Alamogordo, NM5:58.70 315220  542 High Altitude Outfitters
2424.27Ryan Steele   Lakewood, CO6:09.43 349504  634 aCOS
3440.94Richard OConnor   Albuquerque, NM6:45.94 318054  656 Canfield Bros.
4H Plesner   6:48.05  614 Pedal Pushers
5474.28William Medcalf   Albuquerque, NM6:58.66 79977  678 
6490.95Gerhardt Ackerman   Albuquerque, NM7:03.25 315120  712 Bike Works
7507.62Paul Cherry   Lakewood, CO7:38.13 79569  767 
8Ty Edwards   7:57.90  824 
9540.96Brandon Hendrix   Howard, CO8:13.01 317406  827 
DNFScott Branney   Highlands Ranch, CO 237847  501 RPM / Yeti
DNFmark miller   Ruidoso, NM 320518  553 

Men - CAT 1 - 15-18

 Place Points NameCity, StateTime USAC #BibTeam
1248.30Austin Hackett Klaube   Dillon, CO5:26.77 294146  520 Wolf Rock Racing
2263.41Matthew Branney   Littleton, CO5:34.40 219366  507 RPM/Yeti
3278.52Wiley Kaupas   Dillon, CO5:39.49 292907  522 Trek/Sram/Troy Lee
4293.63Paul McSparin   Frisco, CO5:49.13 294143  518 Wolfrock Racing
5308.74Jesse George   Dillon, CO5:52.56 293878  599 Wolf Rock Racing
6323.85Max Kaupas   Dillon, CO6:00.79 292910  523 Trek/Sram/Troy Lee
7338.96Teo Bradbury   Crested Butte, CO6:06.23 321942  573 Giant
8354.07Anders Cook   Lake Oswego, OR7:03.86 297205  586 One Ghost Industries/NW Riders Clothing
9369.18Sawyer Miller   Ruidoso, NM7:22.14 351294  554 
DNFBlake Weber   Parker, CO 263904  591 aCOS - A Culture of Speed
DNFBenjamin Pederson   Los Alamos, NM 296141  685 NM Bike-n-Sport/Specialized

Men - CAT 1 - 19-29

 Place Points NameCity, StateTime USAC #BibTeam
1304.75Douglas French   Rimrock, AZ5:13.34 293104  626 Mojo Wheels/ Spy Optic/ Royal Racing/ Fox Shox
2Tom O'Brien   5:17.57  758 Go Pro / Turner
3315.83Craig Carlson   Aspen, CO5:17.58 266100  631 
4321.37Nathan Wierwille   Albuquerque, NM5:22.56 132035  754 
5326.91Adam Carrera   Steamboat Springs, CO5:30.91 322554  606 
6332.45Brent Carter   Santa Barbara, CA5:33.27 293065  571 Team Intense Marzocchi
7337.99Brian Faenza   Fairplay, CO5:34.39 194910  834 Cee Low Riders
8343.53Anthony Lenz   Fort Collins, CO5:35.04 276701  561 Peloton Cycles
9349.07Scott Gladu   Flagstaff, AZ5:38.32 345540  757 Absolute Bikes
10354.61Phillip Chilimindris   Denver, CO5:38.39 158652  709 
11360.15Cristopher Ries   Flagstaff, AZ5:38.49 249413  660 Dianese / AZ Bikes
12365.69colin pickett   Crested Butte , CO5:41.45 288103  783 Crested Butte Mountain Sports Team
13371.23Cameron Barton   Monument, CO5:41.71 230398  770 
14376.77Lucas LeMaire   Durango, CO5:46.44 264893  584 Team Yanma
15382.31Ryan Strang   Newbury Park, CA5:48.63 249533  748 Boney Mountain Coffee
16387.85Kyle Bickford   Peoria, AZ5:50.87 233378  650 
17393.39Allex McDaniel   Durango, CO6:01.59 232961  695 
18398.93Kyle Hanley   Bellevue, WA6:03.21 269395  781 Bikeworks Abq / Arrow Racing
19404.47Nathan Espinosa   Wheatridge, CO6:03.33 277527  763 Yeti Cycles
20410.01Johnny Muldoon   Orem, UT6:04.84 207643  612 Canfield Brothers
21415.55Joe Nicholson   Durango, CO6:09.81 255069  564 Pedal the Peaks/one industries/hayes bicycle group/monster/spy optics/gamut/leat
22421.09John MacMurray   Durango, CO6:18.76 265526  672 
23426.63Luke Walker   Dumont, CO6:20.79 251846  815 aCOS
24Garrett Evan   6:37.18  593 Demon Dirt/Elevate Racing/Bingham Cyclery
25437.71Michael Allen   Littleton, CO6:51.26 299008  633 
26443.25Parker Moore   Denver, CO6:52.62 232173  658 Road 34
27448.79Traver Joehnck   Santa Barbara, CA8:10.82 249428  795 
DNFDakota Goulder   San Diego, CA 310947  618 
DNFMartin Novak   Longmont, CO 261097  625 TVR/ONE industries/Spy/Monster Energy
DNFLandon Barton   Monument, CO 230416  771 

Men - CAT 1 - 30-39

 Place Points NameCity, StateTime USAC #BibTeam
1353.37Scott Spangler   Albuquerque, NM5:35.77 259921  705 Bike Works Albuquerque
2358.61Jess Fowler   Flagstaff, AZ5:45.22 290673  755 Absolute Bikes
3363.85Damien Anderson   Centennial, CO5:51.27 173932  788 Me
4369.09Jesse Townsend   Grand Junction, CO5:55.62 288568  552 Grassroots Cycles / Sixsixone
5374.33Andrew Heine   Denver, CO5:58.27 298791  640 Wheatridge Cyclery
6379.57Joe Dodds   Lakewood, CO5:59.17 191597  714 Neverest
7384.81Pete Roman   Mammothlakes, CA5:59.35 295494  785 
8390.05Chris Webb   Lakewood, CO5:59.73 266715  635 aCOS / Smiling Moose Deli
9395.29Clay Kimsey   Austin, TX5:59.92 212036  810 Lonestar Gravity
10400.53Shawnee McGovern   Boulder, CO6:00.99 83560  590 Orbit Racing / SMAC Innovations
11405.77Kevin Bates   Crested Butte, CO6:15.43 217492  752 CBMP
12411.01Cole Trout   Golden, CO6:23.50 204952  608 Pedal Pushers -Golden
13416.25John Pentecost   Golden, CO6:40.06 27673  636 Yeti Cycles
14421.49David Lee   Silverthorne, CO6:40.22 113854  747 
15426.73Gary Dye   Telluride, CO6:41.65 152235  786 Boot Doctors/Mountain Village Bike Park
16431.97Scott Richards   Boulder, CO7:09.27 263444  828 Orbit Racing
DNFAlan Decktor   Cedar Crest, NM 212985  638 

Men - CAT 1 - 40-99

 Place Points NameCity, StateTime USAC #BibTeam
1372.47Neal Pederson   Los Alamos, NM5:39.83 212939  684 NM Bike-n-Sport/Specialized
2424.88Tony Achilli   Steamboat Springs, CO6:27.01 351490  589 
3477.29David Vieglais   Annapolis, MD6:28.98 184936  576 
4529.70Johnnie Kavanaugh   Golden, CO7:08.54 75267  536 
DNFGary Bischoff   Durango, CO 102948  568 Nema/Azonic/Kicker/GoPro/SteelMX
DNFCurt Clemetson   Aspen, CO 279045  629 
DNFChris Conroy   Evergreen, CO 136717  740 Yeti Cycles

Men - Pro

 Place Points NameCity, StateTime USAC #BibTeam
1146.40Jason Memmelaar   Chester, NY4:53.40 161139  48 DRD X-Fusion / Intense
2153.45Kain Leonard   Gunnison, CO4:54.57 173480  64 Crested Butte Mountain Sports Team
3160.50Joey Schusler   Boulder, CO4:54.96 201238  53 Yeti Fox Shox Factory Race Team
4167.55Erik Nelson   Gilbert, AZ4:56.93 240674  17 Commencal/Dainese/Smith/Fox/Spank
5174.60Brian Buell   Jamestown, CO4:58.83 218052  32 TeamGeronimo/BansheeBikes
6181.65Daniel Weinman   Taos4:58.94 161751  56 Angel Fire Bike Park / PPCSolar.com
7188.70Trevor Trinkino   Evergreen, CO5:01.01 242852  47 Yeti RPM
8195.75Chris Heath   Denver, CO5:02.01 177708  KHS Factory Racing
9202.80Naish Ulmer   Hood River, OR5:05.77 175253  13 Spy Optics/Rollic Dark Timbers/GO-RIDE.com
10Drew Pautler   5:05.92  35 Primary Trek
11216.90Chris Boice   Albuquerque, NM5:06.77 215006  Yeti Cycles National Team
12223.95Steven Wentz   Boulder, CO5:07.28 148884  60 Sram/Santa Cruz
13231.00Philip Wheeler   Colorado Springs, CO5:07.35 169103  43 Team Sol Vista / Commencal USA
14238.05Andy Proctor   Dillon, CO5:07.79 218094  51 RPM / Yeti
15245.10Evan Powell   Boulder, CO5:08.85 243877  19 Sram Santa Cruz
16252.15Jonathan Widen   Mammoth Lakes, CA5:13.80 217988  11 COVE Bike / Troy Lee Designs / Elka Suspension / 5-10 / Marzocchi
17259.20Samuel Stevens   Carbondale, CO5:14.16 217240  16 Aloha Mountain Cyclery
18266.25Matthew Thompson   Denver, CO5:16.62 99996  42 Sol Vista / Commencal USA
19273.30Jess Pedersen   Telluride , CO5:16.68 186232  67 Team Geronimo / Banshee Bikes
20280.35Dillon Lemarr   Amarillo, TX5:18.60 291074  49 Royal Racing/Demon Dirt/Division 26/BikeWorks Abq
21287.40Nic Hadley   Salt Lake City, UT5:20.48 200990  14 Specialized
22294.45Eric Landis   Grand Junction, CO5:21.64 288034  20 Grassroots Cycles/MRP/Transition/Marzocchi/BikeJames
23301.50Nathaniel Hills   Dillon, CO5:21.76 201161  31 Wolf Rock Racing
24308.55Matson Hunter   Tijeras, NM5:24.02 281707  50 Bike Works / Commencal
25315.60Timothy Sharp   Denver, CO5:24.61 194305  27 YAYBikeCo.com
26322.65Leland Turner   Breckenridge, CO5:25.04 94880  aCOS / Marzocchi
27329.70Andrew Templin   Frutia , CO5:25.14 261131  62 Canfield Brothers/Grassroots Cycles/DT Swiss/MRP/Dakine
28336.75Preston Moore   Santa Barbara, CA5:25.18 245073  52 Open Air Bikes
29343.80Ian Keller   Gilbert, AZ5:26.67 262213  15 Synaptic Training
30350.85Antonio Gradillas   Albuquerque, NM5:39.22 180870  73 Bike Works Albuquerque
31357.90William Lujan   Albuquerque, NM5:41.19 211813  41 Angel Fire Resort / Paradise Power / BikeWorks / Giant
32364.95Alex Boday   Fort Collins, CO05:42.58 163689  65 Jett / Santa Cruz / 661 / Fox
33372.00Vince Sanchez   Albuquerque, NM6:04.75 31197  74 bike works
34379.05Phil Ott   Marquette, MI6:57.19 227380  37 Trek Co-op / Hayes
35386.10Michael Johnson   Santa Barbara, CA7:55.27 261842  25 Meth Labs Industries/Brandon Baker Racing/661
36393.15James Ford   Littleton, CO8:30.18 157072  18 Pedal Pushers Cyclery
DNFMichael Buell   Nederland, CO 202502  22 Team Geronimo/Banshee Bikes
DNFDavid Ziegman   Wheatridge, CO 111812  44 Yeti Cycles National Team
DNFChristopher Shewmake   Denver, CO 212815  45 Sol Vista Bike Park / Commencal USA
DNFDoug Ewer   Denver, CO 182791  46 Team Sol Vista Racing
DNFAnthony Diaz   Durango, CO 144576  55 Turner Bicycles
DNFDerek Teel   Roseville, CA 250236  57 Team Teel / Race Brain
DNFSzymon Kowalski   Lakewood, CO 192143  58 Trek Co-Op

Women - CAT 3 - 1-14

 Place Points NameCity, StateTime USAC #BibTeam
1Michelle Pederson   Los Alamos, NM9:46.11 378263  686 NM Bike-n-Sport

Women - CAT 3 - 15-18

 Place Points NameCity, StateTime USAC #BibTeam
1Rachael Dye   Broomfield, CO12:06.07 316618  529 
2Nadia Renteria   12:51.42  613 high altitude

Women - CAT 2 - 15-18

 Place Points NameCity, StateTime USAC #BibTeam
1533.39Beth Roberts   Moab, UT6:30.55 280245  521 Poison Spider Bicycles
2541.48Rachel Vanderhoff   Marquette, MI8:05.67 332482  838 
3Nicole Digate   8:32.35  721 CBMP
4557.66Brittany Engleking   Nederland, CO8:45.35 278892  682 
5565.75Lindsay Yost   Brighton, CO8:45.90 330222  527 Mojo Wheels
6573.84Sabrina Norton   Golden, CO9:40.57 396309  595 Pedal Pushers
7581.93Jennifer Johnson   Golden, CO10:05.01 280519  607 Pedal Pushers -Golden
8590.02Becca Gallery   Boulder, CO12:27.09 359964  716 

Women - Pro

 Place Points NameCity, StateTime USAC #BibTeam
1540.00Darian Harvey   Durango, CO6:34.47 195177  54 Vixen Racing
2565.00Amy Scherm   Vail, CO7:25.44 234855  33 
3590.00Alisha Gibson   Durango, CO7:53.03 243237  72 Ft Lewis

Report missing or incorrect license numbers

Volkswagen
Sierra NevadaUSACDFShimanoSpyBonk Breaker
UCI USA Cycling is the official governing body for all disciplines of competitive cycling in the United States. The 501c3, membership-based organization aims both to achieve sustained success in international cycling competition and to grow competitive cycling in America while delivering an exceptional customer experience.
View Children's Online Privacy Protection Policy
US Olympic Committee